Torna al catalogo

STARLINK-5922

AttivoComunicazioniVLEO
NORAD 55925·PAYLOAD·🇺🇸 United States

Lanciato Mar 17, 2023 da Vandenberg Space Force Base

Loading…

Prossimi Passaggi (prossime 24 ore)

TLE

AggiornatoSource: CelesTrak SupGP

Epoca: Sep 15, 2026, 01:28 UTC

1 55925C 23037M   26258.06159722 -.00004651  00000+0 -38908-3 0  2582
2 55925  70.0020 186.9060 0002628 270.4355 143.5293 14.98398674    18

Traccia STARLINK-5922 in tempo reale con AllMySat

Download on the App Store